Regional Weather Roundup
Issued by NWS Sterling, VA

Home | Current Version | Previous Version | Graphics & Text | Print | Product List | Glossary On
Versions: 1 2 3 4 5 6 7 8 9 10 11 12 13 14 15 16 17 18 19 20 21 22 23 24 25 26 27
000
ASUS41 KLWX 230710
RWRLWX

REGIONAL WEATHER ROUNDUP
NATIONAL WEATHER SERVICE BALTIMORE MD/WASHINGTON DC
300 AM EDT WED APR 23 2014

Note: "FAIR" indicates few or no clouds below 12,000 feet
with no significant weather and/or obstructions to visibility.
 TC=TEMPERATURE CELSIUS

 * =Non NWS site. Station does not report precipitation (e.g. rain,
    snow, etc.), thunder, or fog.

DCZ001-MDZ009-015-VAZ040>042-051-053>054-230800-
WASHINGTON METRO

CITY           SKY/WX    TMP DP  RH WIND       PRES   REMARKS
WASHINGTON NAT CLOUDY    55  36  48 NW13G24   29.70R
DULLES         MOCLDY    51  34  52 NW18G29   29.69F
ANDREWS AFB    CLOUDY    53  37  55 NW15      29.69R
FT BELVOIR     CLOUDY    54  37  52 NW12G17   29.70S
QUANTICO       CLOUDY    56  37  49 N15G24    29.71R
COLLEGE PARK*  CLOUDY    54  36  50 NW9G16    29.69S
LEESBURG*      MOCLDY    54  37  54 N14G21    29.74R
MANASSAS*      MOCLDY    52  39  62 NW15      29.72R
GAITHERSBURG*  CLEAR     48  34  57 NW20G28   29.72S

$$

MDZ006>007-011-014-230800-
BALTIMORE METRO

CITY           SKY/WX    TMP DP  RH WIND       PRES   REMARKS
BWI AIRPORT    MOCLDY    52  34  50 W14G22    29.67S
MD SCIENCE CTR   N/A     53  34  48 MISG      29.67R
MARTIN STATE   MOCLDY    52  37  58 W18       29.68S
ANNAPOLIS      CLOUDY    55  37  50 NW15G22   29.67R
FORT MEADE*    MOCLDY    50  36  57 NW10      29.70S

$$

MDZ012-015-019>023-230800-
MARYLAND EASTERN SHORE

CITY           SKY/WX    TMP DP  RH WIND       PRES   REMARKS
OCEAN CITY     CLOUDY    58  53  84 VRB5      29.62R
SALISBURY      MOCLDY    60  50  69 NW16G23   29.62S
BAY BRIDGE AP* CLOUDY    54  36  50 NW18G26   29.68R
CAMBRIDGE*     CLOUDY    59  43  55 NW14G28   29.66R
EASTON*        CLOUDY    56  40  53 NW18G25   29.71R

$$

MDZ017>025-230800-
SOUTHERN MARYLAND

CITY           SKY/WX    TMP DP  RH WIND       PRES   REMARKS
PATUXENT RIVER MOCLDY    57  48  72 N13       29.66R
ST INIGOES     MOCLDY    58  48  69 NW8       29.65R
LEONARDTOWN*   MOCLDY    55  43  62 NW7G18    29.69R

$$

MDZ003>005-230800-
NORTH CENTRAL MARYLAND

CITY           SKY/WX    TMP DP  RH WIND       PRES   REMARKS
FREDERICK*     CLEAR     46  37  71 NW5       29.75F
HAGERSTOWN APT CLEAR     44  34  67 W7        29.72F
WESTMINSTER*   CLEAR     46  36  66 NW7       29.71S

$$

MDZ501>502-230800-
WESTERN MARYLAND

CITY           SKY/WX    TMP DP  RH WIND       PRES   REMARKS
OAKLAND*       MOCLDY    36  32  87 NW10      29.76S WCI  28
CUMBERLAND*    CLEAR     48  32  53 NW10G21   29.80S

$$

VAZ025>031-230800-
SHENANDOAH VALLEY

CITY           SKY/WX    TMP DP  RH WIND       PRES   REMARKS
WINCHESTER*    CLOUDY    50  32  50 NW20      29.74S
STAUNTON*      CLEAR     53  31  43 NW8       29.74S

$$

WVZ021-048>050-054>055-230800-
EASTERN WEST VIRGINIA PANHANDLE

CITY           SKY/WX    TMP DP  RH WIND       PRES   REMARKS
MARTINSBURG    PTCLDY    49  32  52 NW9       29.74F
PETERSBURG*    CLOUDY    54  39  57 NW12G18   29.78S

$$

VAZ036>039-050-230800-
CENTRAL FOOTHILLS

CITY           SKY/WX    TMP DP  RH WIND       PRES   REMARKS
CHARLOTTESVILL PTCLDY    57  44  62 N9        29.70R
CULPEPER*      PTCLDY    55  37  50 N10G16    29.72R

$$

VAZ055>057-230800-
NORTH AND CENTRAL PIEDMONT

CITY           SKY/WX    TMP DP  RH WIND       PRES   REMARKS
FREDERICKSBRG* CLOUDY    57  42  55 N12G17    29.70R
STAFFORD*      MOCLDY    55  41  59 NW14      29.74S

$$

NCZ024-NYZ072-PAZ021-071-VAZ022-071-230800-
OTHER REGIONAL OBSERVATIONS

CITY           SKY/WX    TMP DP  RH WIND       PRES   REMARKS
NEW YORK CITY  CLOUDY    59  46  62 NW7       29.53R
PHILADELPHIA   CLOUDY    53  31  42 NW20G31   29.63R
PITTSBURGH     CLOUDY    41  35  79 NW15      29.84R
ROANOKE        CLEAR     55  30  38 NW7       29.77S
RICHMOND       PTCLDY    60  48  64 N14       29.66R
RALEIGH        CLEAR     61  54  77 W6        29.70F

$$

ANZ530>537-230800-
MARINE OBSERVATIONS

STATION/POSITION TIME  TEMP    WIND        PRES
                       AIR SEA DIR/SP/G
                 (UTC) (F)     (DEG/KT/KT) (MB)
THOMAS PT LIGHT  0700   55 55  320/ 19/ 23 1005.3R
BALT KEY BRIDGE  0700   54     290/ 18/ 22 1005.0R
COVE POINT       0700   58     350/ 24/ 26 1004.1R
LEWISETTA        0700   59 58  340/ 10/ 13 1003.9R
SOLOMONS ISLAND  0700      56                N/A
PINEY POINT      0700          360/ 16/ 18   N/A

$$




USA.gov is the U.S. government's official web portal to all federal, state and local government web resources and services.